EHI
12 12 13 12 12 12 11 9 7 5 4 4 4 4 5 6 6 6 6 6 7 8 10 10 8 5 5 9 10 8 4 1 0 1 2 2 2 2 2 3 2 2 1
13 13 13 12 11 10 10 10 8 5 4 5 5 5 6 6 7 7 6 6 5 6 8 9 8 7 7 8 9 7 5 3 1 1 1 1 1 2 2 2 2 2 2
12 12 12 12 11 9 10 9 7 5 4 4 5 5 6 6 6 6 5 4 4 4 5 7 7 7 7 7 7 6 5 4 4 3 2 1 0 1 1 0 1 1 1
10 10 11 12 11 10 9 7 5 4 4 4 4 4 5 6 5 4 3 3 2 2 3 4 5 6 7 6 5 4 4 4 5 6 5 3 1 0 0 0 0 0 0
9 9 9 10 10 9 7 5 4 4 5 5 4 3 4 6 5 2 1 1 2 1 1 2 3 5 7 8 6 6 6 7 7 7 7 5 3 1 0 0 0 0 0
11 11 10 9 8 7 6 4 4 5 6 5 3 2 3 5 4 1 0 1 1 1 0 1 3 5 8 9 9 9 9 8 7 7 7 5 4 3 1 0 0 0 0
11 12 12 10 7 6 6 4 4 5 5 4 3 1 2 3 2 1 1 1 1 1 1 3 5 6 6 8 9 9 8 6 5 6 7 5 4 4 3 1 1 0 0
12 13 13 10 6 5 6 5 5 4 3 3 3 1 1 1 2 2 3 4 3 2 3 5 6 5 4 4 5 5 5 4 4 6 7 6 4 4 4 3 2 1 0
13 13 11 8 4 4 5 6 6 4 2 3 2 1 1 1 2 3 4 4 3 3 3 3 3 3 2 2 3 3 4 3 4 5 5 4 3 3 4 4 3 2 1
11 11 9 6 3 2 3 4 4 3 2 2 2 2 2 1 1 2 2 2 2 1 1 2 2 2 1 1 2 3 2 2 3 3 2 1 1 1 2 3 2 2 1
7 7 6 5 3 1 1 2 2 3 2 2 2 2 2 2 1 1 1 1 1 1 1 2 3 2 1 1 2 1 1 1 1 1 0 0 0 0 1 1 1 1 1
5 5 5 5 4 1 0 0 1 3 2 1 1 1 2 1 1 1 0 0 0 0 1 1 2 1 0 1 1 1 0 0 0 0 0 0 0 0 0 0 0 0 1
5 6 6 6 5 2 0 0 1 2 2 1 0 1 2 1 1 1 1 0 0 0 0 0 1 1 1 1 1 0 0 0 0 0 0 0 0 0 0 0 0 0 1
6 8 8 7 5 3 1 0 0 2 2 1 0 1 2 2 2 2 2 1 0 0 0 0 1 1 1 1 1 1 0 0 0 0 0 0 0 0 0 0 0 0 0
6 7 9 8 5 3 1 0 1 1 2 2 2 1 2 3 3 3 3 1 0 0 0 0 0 0 0 1 1 1 2 1 0 0 0 0 0 0 0 0 0 0 0
7 7 7 7 6 4 2 1 1 1 1 2 3 3 2 2 3 3 2 1 0 0 0 0 0 0 0 0 1 2 3 1 0 0 0 0 0 0 0 0 0 0 0
9 8 7 6 6 4 2 1 1 0 0 1 3 2 1 2 3 3 2 1 0 0 0 0 0 0 0 0 1 2 1 0 0 0 0 0 0 0 0 0 0 0 0
8 7 6 5 4 2 1 1 0 0 0 1 2 2 1 1 1 2 2 1 0 0 0 0 0 0 0 0 0 0 0 0 0 0 0 0 0 0 0 0 0 0 0
7 7 5 4 3 1 0 0 1 1 0 1 2 2 1 1 1 2 2 1 0 0 0 0 0 0 0 0 0 0 0 0 0 0 0 0 0 0 0 0 0 0 0
6 5 4 4 2 1 0 0 1 1 1 0 1 1 1 1 2 2 1 0 0 0 0 0 0 0 0 0 0 0 0 0 0 0 0 0 0 0 0 0 0 0 0
4 4 3 3 2 1 0 0 1 1 1 0 0 0 0 0 1 1 1 0 0 0 0 0 0 0 0 0 0 0 0 0 0 0 0 0 0 0 0 0 0 0 0
3 2 2 1 1 0 0 0 0 0 0 0 0 0 0 0 0 0 0 0 0 0 0 0 0 0 0 0 0 0 0 0 0 0 0 0 0 0 0 0 0 0 0
3 2 1 0 0 0 0 0 0 0 0 0 0 0 0 0 0 0 0 0 0 0 0 0 0 0 0 0 0 0 0 0 0 0 0 0 0 0 0 0 0 0 0
5 3 2 2 2 1 0 0 0 0 0 0 0 0 0 0 0 0 0 0 0 0 0 0 0 0 0 0 0 0 0 0 0 0 0 0 0 0 0 0 0 0 0
8 6 5 4 3 1 0 0 0 0 0 0 0 0 0 0 0 0 0 0 0 0 0 0 0 0 0 0 0 0 0 0 0 0 0 0 0 0 0 0 0 0 0
8 7 6 5 3 1 0 0 0 0 0 0 0 0 0 0 0 0 0 0 0 0 0 0 0 0 0 0 0 0 0 0 0 0 0 0 0 0 0 0 0 0 0
Wind_Speed
0 1 0 0 1 1 2 2 1 1 1 1 2 1 0 0 1 2 3 7 7 8 8 7 6 5 4 4 4 4 5 6 6 7 6 6 6 7 7 8 9 9 8
1 0 0 0 0 0 0 0 0 1 1 1 1 0 0 0 1 2 3 5 7 8 8 8 8 7 6 5 5 5 5 6 6 6 6 6 6 7 7 8 9 9 9
1 0 0 0 0 0 0 0 0 0 1 1 1 1 1 1 1 2 3 3 3 6 8 8 8 8 7 6 6 5 5 5 6 7 7 7 7 6 7 8 9 10 9
0 1 0 0 1 0 0 0 0 0 0 1 1 1 1 1 2 2 2 3 3 3 6 8 8 8 8 7 6 6 5 5 6 6 6 7 7 7 7 8 9 9 10
1 0 0 1 1 0 0 1 0 0 1 1 1 2 2 2 2 3 3 3 3 3 3 6 8 9 9 8 8 7 6 6 6 6 6 6 7 7 7 7 8 8 9
1 0 1 0 1 0 0 0 1 1 1 1 3 2 2 2 2 2 3 3 3 4 4 4 4 6 9 9 8 8 7 7 7 6 6 6 6 7 7 7 9 9 9
1 0 1 0 1 1 1 1 1 1 2 1 2 1 2 3 3 2 2 2 3 3 3 4 4 3 4 9 8 8 7 7 7 7 7 7 6 6 7 8 8 9 9
1 1 1 1 1 1 1 1 1 1 1 0 1 1 1 1 1 3 2 3 3 2 2 3 3 4 3 3 5 8 7 7 7 8 8 7 7 7 7 8 8 9 10
1 0 1 1 1 1 2 2 1 1 1 1 1 0 0 0 1 1 2 2 2 2 1 1 2 3 3 2 3 6 7 7 7 8 8 7 8 8 9 9 9 9 9
2 2 1 1 1 1 1 2 1 1 1 1 1 1 1 0 1 1 1 1 1 2 2 2 2 2 3 2 3 5 6 6 6 7 8 8 9 9 9 9 9 10 10
2 2 2 1 1 1 1 1 1 1 1 1 1 1 1 1 2 1 2 1 1 1 1 2 1 2 2 3 3 5 6 6 6 6 6 7 8 9 9 9 10 10 10
2 2 2 2 2 1 1 1 1 1 1 1 1 1 1 1 1 1 2 2 2 1 2 2 2 2 2 3 4 6 6 6 7 6 6 6 7 8 9 10 10 10 10
2 2 2 2 2 2 2 2 2 2 2 2 1 1 1 1 1 1 1 2 2 2 1 2 2 2 2 2 3 6 6 7 7 7 6 6 7 7 8 9 10 10 10
1 2 2 2 2 3 3 2 2 2 2 2 2 2 1 1 1 1 2 1 2 2 1 2 1 2 1 2 3 6 5 8 7 7 7 7 7 7 8 8 9 9 9
2 2 2 3 2 2 2 2 2 2 2 2 2 2 2 1 1 1 1 1 1 2 2 2 1 1 1 1 4 4 4 7 8 8 8 8 8 8 8 8 8 8 8
2 2 2 2 2 2 3 2 2 2 3 2 2 1 1 1 1 1 1 2 1 2 2 2 2 2 2 2 3 3 3 7 8 8 8 8 8 8 8 8 8 8 8
2 2 3 2 2 2 2 2 2 3 3 2 2 2 2 2 1 1 1 1 1 1 2 3 2 2 2 3 2 3 3 4 4 8 9 9 9 8 7 7 7 7 7
3 3 3 3 3 3 3 3 3 3 3 2 2 1 1 1 1 2 1 2 2 2 2 3 2 2 3 3 3 4 4 4 3 7 9 9 9 8 7 7 6 6 6
2 2 2 3 3 3 3 2 3 2 2 2 2 2 1 1 2 1 2 2 2 2 1 2 3 2 2 2 2 2 3 2 3 5 8 8 9 9 8 7 7 7 7
2 2 2 2 2 2 2 2 3 3 3 2 2 2 2 2 2 2 3 2 2 2 2 2 2 2 2 2 1 2 2 2 3 3 3 4 6 8 8 8 8 8 8
1 2 2 2 2 2 2 2 2 3 2 2 2 2 2 2 2 2 2 2 2 2 2 2 2 2 2 1 1 1 2 2 3 2 2 2 3 3 4 6 7 8 8
1 1 1 1 1 1 1 1 0 1 2 2 2 2 2 3 3 4 3 3 3 3 3 3 3 3 3 2 1 2 2 2 2 2 2 3 3 3 4 4 7 9 9
1 1 1 1 1 1 1 1 1 1 2 2 2 2 4 3 3 2 3 4 4 6 6 4 4 4 3 2 2 3 2 2 3 2 2 2 2 3 3 5 9 10 9
1 1 1 1 1 1 2 2 2 1 1 2 2 3 3 2 2 2 2 2 2 3 4 3 3 4 3 1 2 3 3 3 3 3 2 2 2 2 2 3 8 9 9
2 2 2 2 2 2 3 3 3 2 2 2 3 2 2 1 1 1 1 2 3 3 3 3 4 5 5 5 4 2 3 2 3 2 3 2 2 2 2 2 4 8 9
2 2 2 2 2 2 3 4 4 2 2 2 2 2 2 1 1 1 2 2 3 3 3 3 4 5 6 7 8 6 4 3 2 1 2 2 2 2 1 1 2 4 4
Wind_Direction
97 107 131 211 214 189 188 202 205 189 225 233 246 223 92 91 153 146 150 163 165 168 175 179 179 181 187 190 188 191 194 193 194 194 195 201 204 203 207 205 197 197 202
78 55 110 193 309 46 63 247 182 194 210 238 270 0 22 155 179 165 164 170 183 184 184 188 190 191 198 203 198 202 201 201 202 200 198 200 202 205 209 209 202 200 203
89 278 219 193 269 243 153 123 301 255 206 217 205 231 213 234 198 188 174 170 178 193 196 197 197 195 199 208 207 205 206 206 208 211 210 206 203 206 212 212 206 204 204
97 290 242 327 334 338 90 157 135 258 215 237 191 232 226 193 197 203 189 188 184 183 190 198 198 198 201 210 218 218 217 214 214 215 218 219 215 215 216 218 212 210 209
135 190 102 11 285 168 99 268 142 325 299 281 236 211 221 206 193 207 203 203 192 176 175 184 194 202 208 213 215 218 219 218 218 221 224 226 225 221 218 220 215 215 215
143 244 130 41 285 137 102 1 332 258 276 260 264 225 212 209 198 203 209 201 193 196 182 183 186 199 207 208 207 211 216 220 219 219 222 227 230 225 220 220 216 213 215
135 210 102 172 256 159 170 223 255 252 237 235 270 267 231 213 189 193 201 203 205 200 185 185 182 187 193 205 206 208 216 223 225 222 223 224 229 231 225 221 218 216 215
146 178 107 198 241 170 167 241 258 280 269 215 275 290 254 227 219 208 188 192 193 193 206 198 182 179 188 176 192 205 216 223 228 230 230 226 228 232 229 224 223 222 220
160 189 153 190 230 208 180 204 236 246 278 275 238 257 314 343 291 235 221 201 170 171 208 202 198 180 190 177 177 192 199 211 226 231 231 231 229 230 230 228 226 225 224
192 191 174 186 208 227 201 221 193 247 252 266 256 220 179 180 281 309 276 231 207 197 203 226 220 188 192 175 168 168 180 194 215 233 238 239 233 231 229 230 230 229 227
214 200 180 181 197 217 205 233 187 237 242 250 264 238 253 233 229 234 269 273 270 221 194 208 221 203 193 175 175 173 184 193 205 222 236 240 238 233 231 231 232 232 229
210 211 193 181 192 197 200 210 209 211 228 242 269 253 245 242 244 240 257 263 266 249 228 218 218 211 194 176 196 183 183 195 207 215 224 234 241 239 234 234 236 237 236
206 201 196 187 197 201 200 200 199 211 215 227 248 269 263 257 265 256 254 272 280 270 249 238 217 200 197 171 176 185 199 201 206 209 216 225 233 239 239 236 237 237 237
203 181 181 194 208 213 204 196 194 206 202 215 225 240 267 263 256 239 250 255 286 286 275 261 238 195 187 179 186 200 200 200 203 209 216 222 226 230 235 233 232 230 229
201 176 187 197 213 218 203 206 197 211 206 205 211 223 245 257 249 254 264 253 246 271 278 263 267 218 203 185 186 205 194 201 205 211 218 220 221 225 229 227 223 220 219
191 182 190 198 203 214 211 207 198 208 202 196 200 213 249 278 291 273 271 286 267 245 271 265 265 250 244 246 206 208 206 200 207 208 214 218 219 221 222 222 217 213 213
197 205 200 202 209 204 205 204 209 207 202 194 207 194 225 240 255 270 272 269 268 255 260 275 274 265 253 251 241 232 218 201 204 210 210 211 213 215 214 213 208 208 208
211 211 198 196 214 208 198 206 218 205 196 192 198 196 244 265 260 268 278 276 268 247 240 268 277 271 261 249 236 241 239 215 206 211 206 208 209 209 206 206 203 201 202
226 206 192 201 214 212 202 203 210 214 212 205 204 203 228 264 282 281 276 276 278 275 252 256 270 268 258 254 242 260 262 252 235 216 203 200 205 205 203 203 199 199 200
207 196 200 215 217 216 205 212 214 219 220 216 215 212 219 229 251 262 268 275 278 279 266 266 271 267 256 255 239 236 267 260 247 239 213 200 197 200 199 194 195 196 198
204 192 200 217 216 209 207 210 212 208 206 214 219 215 220 226 223 246 269 278 277 272 272 270 271 275 273 276 267 249 249 248 247 225 209 214 192 191 191 194 198 199 198
187 175 199 222 216 239 136 144 178 177 188 213 221 215 215 222 216 231 249 263 258 256 264 261 264 266 273 280 267 267 264 253 254 216 196 229 199 191 183 184 191 192 194
183 210 215 199 167 81 134 173 188 186 204 223 233 237 250 233 215 223 234 246 255 260 250 250 257 257 255 268 274 266 264 263 260 241 211 233 203 192 190 180 171 179 185
184 211 227 227 189 183 172 185 207 206 231 243 244 242 243 251 250 249 262 280 275 278 266 247 252 259 256 263 268 264 256 253 255 244 197 215 207 192 168 148 166 175 179
201 209 217 220 210 193 192 193 187 222 234 253 256 256 242 235 255 251 244 269 285 284 286 264 250 249 250 249 246 256 256 255 263 239 205 202 193 152 138 152 165 175 179
204 215 223 217 209 198 197 199 196 224 237 247 257 251 225 205 116 212 244 264 273 278 283 280 262 255 246 237 230 226 232 242 253 249 212 194 179 151 146 155 147 159 174